When you browse on this site, cookies collect data to enhance your experience and personalize the content and advertising you see.
Visit our Privacy Policy to learn more. By continuing to use the site, you agree to this use of cookies and data.
  • In Österreich
  • Länderverzeichnis
  • Für 7 Tage
  • Wassertemperatur
  • Satellitenkarten
  • Wetterkarte
  • News
  • Widgets
  • user-avatar
    Anmelden

    Stündliche Wetter Chinsali

    Heute, 21 Januar, Montag

    Zeit Temperatur Niederschläge Wind Luftdruck Luftfeuchtigkeit
    00:00 +19°C° 0.8 mm 1 m/S 647 mmHg 98%
    01:00 +19°C° 0.8 mm 1 m/S 647 mmHg 98%
    02:00 +19°C° 0 mm 1 m/S 647 mmHg 98%
    03:00 +19°C° 0.4 mm 1 m/S 647 mmHg 98%
    04:00 +17°C° 0.4 mm 0 m/S 647 mmHg 98%
    05:00 +17°C° 0.4 mm 0 m/S 647 mmHg 98%
    06:00 +17°C° 0.3 mm 0 m/S 647 mmHg 96%
    07:00 +18°C° 0.3 mm 0 m/S 648 mmHg 94%
    08:00 +19°C° 0 mm 0 m/S 648 mmHg 92%
    09:00 +21°C° 0.7 mm 1 m/S 648 mmHg 91%
    10:00 +22°C° 0.7 mm 1 m/S 648 mmHg 89%
    11:00 +23°C° 0.7 mm 1 m/S 648 mmHg 87%
    12:00 +23°C° 1.2 mm 1 m/S 647 mmHg 86%
    13:00 +24°C° 1.2 mm 1 m/S 647 mmHg 85%
    14:00 +24°C° 1.2 mm 2 m/S 646 mmHg 84%
    15:00 +24°C° 1.7 mm 1 m/S 646 mmHg 87%
    16:00 +23°C° 1.7 mm 1 m/S 645 mmHg 89%
    17:00 +23°C° 1.7 mm 1 m/S 645 mmHg 92%
    18:00 +22°C° 1.4 mm 1 m/S 645 mmHg 93%
    19:00 +21°C° 1.4 mm 1 m/S 645 mmHg 95%
    20:00 +20°C° 1.4 mm 1 m/S 645 mmHg 96%
    21:00 +20°C° 0.8 mm 1 m/S 646 mmHg 96%
    22:00 +20°C° 0.8 mm 1 m/S 646 mmHg 96%
    23:00 +19°C° 0.8 mm 1 m/S 646 mmHg 96%

    Morgen, 22 Januar, Dienstag

    Zeit Temperatur Niederschläge Wind Luftdruck Luftfeuchtigkeit
    00:00 +19°C° 0.1 mm 1 m/S 646 mmHg 96%
    01:00 +18°C° 0.1 mm 1 m/S 645 mmHg 97%
    02:00 +18°C° 0.1 mm 1 m/S 645 mmHg 97%
    03:00 +18°C° 0 mm 1 m/S 645 mmHg 96%
    04:00 +18°C° 0 mm 1 m/S 645 mmHg 96%
    05:00 +18°C° 0 mm 1 m/S 645 mmHg 96%
    06:00 +19°C° 0 mm 1 m/S 646 mmHg 93%
    07:00 +21°C° 0 mm 1 m/S 646 mmHg 90%
    08:00 +20°C° 0 mm 0 m/S 647 mmHg 87%
    09:00 +23°C° 0.6 mm 1 m/S 647 mmHg 85%
    10:00 +23°C° 0.6 mm 2 m/S 647 mmHg 83%
    11:00 +24°C° 0.6 mm 2 m/S 647 mmHg 82%
    12:00 +25°C° 0.8 mm 2 m/S 646 mmHg 81%
    13:00 +25°C° 0.8 mm 2 m/S 646 mmHg 80%
    14:00 +25°C° 0.8 mm 2 m/S 645 mmHg 80%
    15:00 +25°C° 1 mm 2 m/S 645 mmHg 82%
    16:00 +24°C° 1 mm 2 m/S 644 mmHg 84%
    17:00 +24°C° 1 mm 2 m/S 644 mmHg 87%
    18:00 +23°C° 1.1 mm 2 m/S 644 mmHg 90%
    19:00 +20°C° 1.1 mm 2 m/S 644 mmHg 92%
    20:00 +20°C° 1.1 mm 1 m/S 645 mmHg 95%
    21:00 +20°C° 0.4 mm 1 m/S 645 mmHg 95%
    22:00 +20°C° 0.4 mm 1 m/S 645 mmHg 95%
    23:00 +20°C° 0.4 mm 1 m/S 646 mmHg 95%

    übermorgen, 23 Januar, Mittwoch

    Zeit Temperatur Niederschläge Wind Luftdruck Luftfeuchtigkeit
    00:00 +19°C° 0 mm 1 m/S 645 mmHg 96%
    01:00 +19°C° 0 mm 1 m/S 645 mmHg 96%
    02:00 +19°C° 0 mm 1 m/S 644 mmHg 97%
    03:00 +19°C° 0 mm 1 m/S 644 mmHg 97%
    04:00 +19°C° 0 mm 1 m/S 644 mmHg 97%
    05:00 +18°C° 0 mm 1 m/S 644 mmHg 97%
    06:00 +18°C° 0.1 mm 2 m/S 645 mmHg 95%
    07:00 +19°C° 0.1 mm 2 m/S 646 mmHg 93%
    08:00 +20°C° 0.1 mm 3 m/S 646 mmHg 91%
    09:00 +21°C° 0.4 mm 3 m/S 646 mmHg 87%
    10:00 +22°C° 0.4 mm 4 m/S 647 mmHg 83%
    11:00 +23°C° 0.4 mm 4 m/S 647 mmHg 79%
    12:00 +23°C° 0.8 mm 4 m/S 646 mmHg 79%
    13:00 +25°C° 0.8 mm 4 m/S 645 mmHg 79%
    14:00 +25°C° 0.8 mm 4 m/S 645 mmHg 79%
    15:00 +25°C° 0.4 mm 3 m/S 644 mmHg 81%
    16:00 +25°C° 0.4 mm 3 m/S 644 mmHg 82%
    17:00 +24°C° 0.4 mm 2 m/S 644 mmHg 83%
    18:00 +23°C° 0.4 mm 1 m/S 644 mmHg 87%
    19:00 +22°C° 0.4 mm 1 m/S 645 mmHg 90%
    20:00 +21°C° 0.4 mm 1 m/S 645 mmHg 93%
    21:00 +21°C° 2.8 mm 1 m/S 645 mmHg 93%
    22:00 +21°C° 2.8 mm 1 m/S 646 mmHg 94%
    23:00 +21°C° 2.8 mm 1 m/S 646 mmHg 94%

    24 Januar, Donnerstag

    Zeit Temperatur Niederschläge Wind Luftdruck Luftfeuchtigkeit
    00:00 +20°C° 1.6 mm 1 m/S 646 mmHg 94%
    01:00 +20°C° 1.6 mm 1 m/S 645 mmHg 94%
    02:00 +19°C° 1.6 mm 2 m/S 645 mmHg 94%
    03:00 +19°C° 0.5 mm 2 m/S 645 mmHg 94%
    04:00 +18°C° 0.5 mm 2 m/S 645 mmHg 94%
    05:00 +18°C° 0.5 mm 2 m/S 645 mmHg 95%
    06:00 +19°C° 0.8 mm 2 m/S 646 mmHg 95%
    07:00 +19°C° 0.8 mm 3 m/S 647 mmHg 94%
    08:00 +19°C° 0.8 mm 3 m/S 647 mmHg 94%
    09:00 +19°C° 0.7 mm 3 m/S 647 mmHg 94%
    10:00 +19°C° 0.7 mm 3 m/S 647 mmHg 94%
    11:00 +19°C° 0.7 mm 3 m/S 647 mmHg 93%
    12:00 +21°C° 0.1 mm 3 m/S 647 mmHg 86%
    13:00 +22°C° 0.1 mm 4 m/S 646 mmHg 79%
    14:00 +25°C° 0.1 mm 4 m/S 646 mmHg 72%
    15:00 +24°C° 0.1 mm 3 m/S 646 mmHg 75%
    16:00 +24°C° 0.1 mm 3 m/S 645 mmHg 78%
    17:00 +24°C° 0.1 mm 2 m/S 645 mmHg 82%
    18:00 +23°C° 0 mm 2 m/S 645 mmHg 84%
    19:00 +22°C° 0 mm 1 m/S 646 mmHg 86%
    20:00 +21°C° 0 mm 1 m/S 646 mmHg 89%
    21:00 +20°C° 0 mm 1 m/S 646 mmHg 89%
    22:00 +20°C° 0 mm 1 m/S 647 mmHg 89%
    23:00 +18°C° 0 mm 0 m/S 647 mmHg 89%

    25 Januar, Freitag

    Zeit Temperatur Niederschläge Wind Luftdruck Luftfeuchtigkeit
    00:00 +17°C° 0.1 mm 0 m/S 646 mmHg 90%
    01:00 +17°C° 0.1 mm 0 m/S 646 mmHg 91%
    02:00 +17°C° 0.1 mm 0 m/S 646 mmHg 92%
    03:00 +18°C° 0 mm 1 m/S 646 mmHg 93%
    04:00 +18°C° 0 mm 1 m/S 646 mmHg 94%
    05:00 +18°C° 0 mm 1 m/S 646 mmHg 94%
    06:00 +19°C° 0 mm 1 m/S 647 mmHg 91%
    07:00 +20°C° 0 mm 1 m/S 648 mmHg 88%
    08:00 +21°C° 0 mm 1 m/S 648 mmHg 85%
    09:00 +23°C° 0.1 mm 1 m/S 648 mmHg 80%
    10:00 +24°C° 0.1 mm 2 m/S 648 mmHg 75%
    11:00 +25°C° 0.1 mm 2 m/S 648 mmHg 71%
    12:00 +25°C° 0.3 mm 2 m/S 648 mmHg 70%
    13:00 +26°C° 0.3 mm 2 m/S 647 mmHg 69%
    14:00 +26°C° 0.3 mm 2 m/S 646 mmHg 68%
    15:00 +26°C° 0.2 mm 2 m/S 646 mmHg 72%
    16:00 +25°C° 0.2 mm 2 m/S 646 mmHg 77%
    17:00 +25°C° 0.2 mm 1 m/S 646 mmHg 81%
    18:00 +24°C° 0.9 mm 1 m/S 646 mmHg 84%
    19:00 +22°C° 0.9 mm 1 m/S 646 mmHg 88%
    20:00 +21°C° 0.9 mm 1 m/S 646 mmHg 91%
    21:00 +21°C° 1 mm 1 m/S 647 mmHg 92%
    22:00 +20°C° 1 mm 1 m/S 647 mmHg 92%
    23:00 +20°C° 1 mm 1 m/S 647 mmHg 92%

    26 Januar, Samstag

    Zeit Temperatur Niederschläge Wind Luftdruck Luftfeuchtigkeit
    00:00 +20°C° 0.4 mm 1 m/S 647 mmHg 93%
    01:00 +18°C° 0.4 mm 0 m/S 646 mmHg 94%
    02:00 +17°C° 0.4 mm 0 m/S 646 mmHg 95%
    03:00 +17°C° 0.1 mm 0 m/S 646 mmHg 95%
    04:00 +17°C° 0.1 mm 0 m/S 646 mmHg 95%
    05:00 +17°C° 0.1 mm 0 m/S 646 mmHg 96%
    06:00 +18°C° 0 mm 0 m/S 647 mmHg 95%
    07:00 +18°C° 0 mm 0 m/S 647 mmHg 94%
    08:00 +19°C° 0 mm 0 m/S 648 mmHg 93%
    09:00 +20°C° 0 mm 0 m/S 648 mmHg 85%
    10:00 +22°C° 0 mm 0 m/S 648 mmHg 77%
    11:00 +24°C° 0 mm 0 m/S 649 mmHg 69%
    12:00 +24°C° 0 mm 0 m/S 648 mmHg 66%
    13:00 +26°C° 0 mm 1 m/S 647 mmHg 63%
    14:00 +26°C° 0 mm 1 m/S 647 mmHg 60%
    15:00 +26°C° 0 mm 1 m/S 646 mmHg 64%
    16:00 +25°C° 0 mm 1 m/S 646 mmHg 69%
    17:00 +25°C° 0 mm 1 m/S 646 mmHg 73%
    18:00 +23°C° 0 mm 1 m/S 646 mmHg 77%
    19:00 +22°C° 0 mm 1 m/S 646 mmHg 81%
    20:00 +19°C° 0 mm 0 m/S 646 mmHg 85%
    21:00 +18°C° 0 mm 0 m/S 646 mmHg 86%
    22:00 +18°C° 0 mm 0 m/S 646 mmHg 88%
    23:00 +20°C° 0 mm 1 m/S 647 mmHg 90%
    Mehr zeigen